Date,TemperatureHighF,TemperatureAvgF,TemperatureLowF,DewpointHighF,DewpointAvgF,DewpointLowF,HumidityHigh,HumidityAvg,HumidityLow,PressureMaxIn,PressureMinIn,WindSpeedMaxMPH,WindSpeedAvgMPH,GustSpeedMaxMPH,PrecipitationSumIn
2013-1-1,45,43,42,43,42,41,97,95,90,30.16,30.10,4,1,10,0.48
2013-1-2,43,40,36,41,38,34,97,92,83,30.27,30.06,6,2,13,0.25
2013-1-3,42,35,28,36,29,15,97,79,43,30.45,30.24,7,2,12,0.00
2013-1-4,43,31,24,18,13,7,74,50,25,30.54,30.43,10,4,19,0.00
2013-1-5,45,37,24,33,11,-11,80,39,10,30.57,30.40,10,3,17,0.01
2013-1-6,49,40,31,39,31,22,92,72,38,30.40,30.22,13,6,24,0.01
2013-1-7,46,35,28,25,22,10,81,60,31,30.58,30.34,10,2,23,0.00
2013-1-8,48,39,28,45,34,20,96,85,63,30.62,30.53,7,1,11,0.00
2013-1-9,53,50,46,51,48,45,98,97,84,30.62,30.56,8,1,12,0.01
2013-1-10,52,52,52,50,50,49,92,91,90,30.60,30.60,0,0,1,0.01
2013-1-22,33,26,18,10,6,1,57,43,29,30.44,30.27,14,6,31,0.00
2013-1-23,43,30,22,26,18,10,73,60,44,30.55,30.30,11,6,20,0.00
2013-1-24,41,34,19,29,14,-3,77,48,15,30.56,30.20,18,7,40,0.00
2013-1-25,42,26,15,40,21,4,97,81,57,30.57,30.32,21,6,40,0.00
2013-1-26,49,40,36,37,17,8,89,42,22,30.47,30.32,9,4,25,0.00
2013-1-27,42,33,25,31,26,15,94,75,38,30.65,30.47,5,1,9,0.00
2013-1-28,51,43,32,47,39,26,97,88,62,30.64,30.45,12,4,22,0.00
2013-1-29,56,52,46,54,47,35,98,86,55,30.45,30.16,11,5,25,0.12
2013-1-30,56,51,36,55,50,34,98,98,93,30.16,29.60,18,11,49,1.26
2013-1-31,36,30,22,34,19,16,94,66,52,30.27,29.65,22,10,37,0.13
2013-2-1,33,24,17,26,9,-1,90,54,32,30.53,30.17,35,9,56,0.00
2013-2-2,33,26,17,29,10,-16,96,60,16,30.56,30.27,14,6,25,0.00
2013-2-3,34,29,25,29,24,19,96,82,63,30.28,30.13,16,9,38,0.00
2013-2-4,43,34,25,24,19,12,79,54,40,30.35,30.20,13,4,20,0.00
2013-2-5,51,40,37,37,26,16,87,60,40,30.20,30.12,11,4,27,0.00
2013-2-17,31,25,15,9,6,1,62,45,35,30.52,30.31,14,6,35,0.00
2013-2-18,48,34,24,24,18,10,60,52,36,30.60,30.38,10,3,20,0.00
2013-2-19,43,34,28,37,24,11,97,69,39,30.38,30.09,20,8,37,0.05
2013-2-20,43,32,23,11,1,-10,52,29,12,30.34,30.19,14,7,32,0.02
2013-2-21,55,42,33,32,6,-41,94,30,2,30.36,30.23,7,2,14,0.38
2013-2-22,46,36,30,45,35,29,98,96,93,30.37,30.27,8,1,13,0.99
2013-2-23,49,46,42,48,45,40,98,97,94,30.29,29.97,8,2,17,0.32
2013-2-24,55,43,35,40,25,11,97,54,19,30.19,29.99,8,4,22,0.02
2013-2-25,45,39,33,32,25,9,96,59,25,30.24,30.11,3,1,9,0.09
2013-2-26,41,37,33,40,35,29,98,95,85,30.12,29.74,18,4,29,2.24
2013-2-27,48,37,29,33,28,23,91,73,39,29.99,29.83,15,8,30,0.01
2013-3-21,34,25,17,13,6,-1,65,45,32,30.16,29.91,14,6,36,0.00
2013-3-22,39,30,21,27,14,6,70,53,35,30.27,30.16,8,3,12,0.00
2013-3-23,57,41,35,49,38,24,96,88,65,30.26,30.03,5,2,12,0.06
2013-3-24,44,39,34,43,38,33,97,96,92,30.05,29.66,11,2,18,1.05
2013-3-25,34,25,21,33,20,17,97,83,70,30.14,29.69,17,9,39,0.10
2013-3-26,30,24,20,23,19,16,88,80,62,30.43,30.13,13,7,27,0.00
2013-3-27,44,30,21,22,18,14,82,62,30,30.50,30.40,12,5,22,0.00
2013-3-28,48,35,25,20,15,5,74,48,18,30.51,30.42,8,4,20,0.00
2013-3-29,46,37,33,35,23,8,91,59,29,30.52,30.42,10,3,17,0.01
2013-3-30,58,45,37,41,36,33,91,72,46,30.42,30.23,5,2,14,0.05
2013-3-31,56,48,44,48,44,-100,97,91,71,30.24,30.00,16,6,27,0.41
2013-4-1,54,48,41,47,38,32,93,69,43,30.13,29.99,14,5,27,0.01
2013-4-2,56,44,34,32,19,-3,73,43,13,30.29,30.11,17,5,24,0.00
2013-4-3,53,43,36,30,24,21,64,48,31,30.40,30.26,6,2,11,0.00
2013-4-4,41,34,29,32,28,24,95,81,52,30.40,30.20,8,2,12,0.10
2013-4-11,60,59,55,59,58,54,97,97,96,29.84,29.78,18,10,37,1.28
2013-4-12,65,56,46,54,44,32,98,68,31,29.96,29.72,20,8,45,1.77
2013-4-13,66,53,43,34,30,22,69,45,21,30.18,29.96,12,6,26,0.03
2013-4-14,61,52,45,46,37,28,97,60,40,30.21,30.08,5,1,12,0.30
2013-4-15,63,53,46,57,50,45,98,93,72,30.34,30.08,5,1,11,0.46
2013-4-16,69,58,53,60,54,52,98,88,66,30.42,30.32,5,1,12,0.01
2013-4-17,72,60,55,60,55,51,97,85,64,30.36,30.23,7,2,13,0.85
2013-4-18,65,59,55,57,55,52,97,86,70,30.24,30.06,8,3,20,0.03
2013-4-19,58,53,37,57,50,29,98,89,46,30.06,29.84,14,8,37,0.76
2013-4-20,57,42,31,33,24,16,83,53,25,30.45,30.00,13,6,28,0.07
2013-4-21,58,46,38,35,28,23,75,51,35,30.56,30.44,6,2,15,0.00
2013-4-22,62,46,35,40,35,32,90,66,36,30.53,30.36,5,2,15,0.00
2013-4-23,65,50,38,43,34,25,72,56,39,30.41,30.27,6,2,14,0.00
2013-4-24,60,53,49,54,48,43,96,82,69,30.30,30.17,11,6,24,0.01
2013-4-25,64,52,38,50,26,0,94,51,8,30.43,30.20,11,4,23,0.01
2013-4-26,63,52,43,36,29,21,51,41,32,30.53,30.42,7,3,14,0.01
2013-4-27,51,46,42,46,43,35,97,89,55,30.51,30.37,6,1,11,0.46
2013-4-28,50,47,43,49,44,-100,98,97,90,30.39,30.19,5,1,11,2.31
2013-4-29,64,54,47,57,50,46,98,88,66,30.21,30.07,8,2,15,0.35
2013-4-30,67,57,50,55,51,47,92,80,57,30.26,30.09,4,1,8,0.04
2013-5-1,60,54,49,53,49,47,94,83,63,30.35,30.24,7,2,14,0.00
2013-5-2,57,51,49,56,49,46,97,94,88,30.38,30.32,3,0,12,0.10
2013-5-3,51,48,47,50,47,46,98,96,89,30.33,30.19,4,1,18,0.46
2013-5-4,47,44,40,46,43,39,98,98,95,30.19,30.04,5,1,15,1.63
2013-5-5,47,45,43,46,44,42,98,98,98,30.08,29.95,5,2,16,4.84
2013-5-6,50,44,40,48,43,38,98,94,76,30.06,29.91,8,2,14,0.55
2013-5-7,41,41,40,39,39,38,94,92,92,30.06,30.05,3,1,6,0.32
2013-5-20,64,61,59,61,59,56,95,92,86,30.19,30.16,4,1,10,1.32
2013-5-21,77,64,58,69,60,51,97,87,57,30.16,30.06,9,1,16,0.61
2013-5-22,71,63,58,66,60,54,97,91,74,30.13,29.99,8,2,14,0.64
2013-5-23,59,58,58,58,57,57,97,97,97,30.05,30.03,0,0,1,0.64
2013-7-5,73,64,60,68,63,60,99,95,77,30.36,30.28,6,2,18,1.99
2013-7-6,71,64,59,69,63,58,98,98,91,30.32,30.21,8,1,15,3.18
2013-7-7,71,65,62,68,64,61,99,97,87,30.28,30.21,7,3,17,0.99
2013-7-8,77,66,63,70,63,-100,97,91,73,30.31,30.21,4,1,7,0.64
2013-7-9,78,68,63,72,66,62,98,92,76,30.27,30.17,3,1,6,0.66
2013-7-10,75,66,65,70,63,-100,98,93,83,30.22,30.06,4,1,8,0.86
2013-7-11,75,67,63,71,65,62,98,93,77,30.07,29.97,4,1,7,0.12
2013-7-12,76,65,60,69,62,55,98,91,71,30.08,29.98,4,1,10,0.12
2013-7-13,68,62,58,65,61,56,98,96,85,30.22,30.08,2,0,6,0.33
2013-7-14,66,64,63,65,63,62,99,98,97,30.37,30.20,2,0,12,1.42
2013-7-15,78,66,61,69,64,61,99,94,71,30.45,30.37,3,0,9,0.18
2013-7-16,83,71,63,72,66,62,97,85,62,30.43,30.34,2,0,7,0.01
2013-7-17,80,70,65,70,66,62,97,87,69,30.38,30.24,4,1,5,0.14
2013-7-18,82,71,63,71,65,60,95,83,63,30.30,30.18,3,1,7,0.01
2013-7-19,81,69,65,70,65,62,96,88,58,30.23,30.10,5,1,7,0.04
2013-7-20,73,67,64,69,64,-100,97,91,77,30.15,30.04,5,0,7,0.08
2013-7-21,77,68,63,69,65,62,98,91,73,30.13,30.02,5,1,9,0.88
2013-7-22,76,66,62,69,64,61,98,91,72,30.11,29.97,8,2,15,0.04
2013-7-23,77,68,62,67,62,59,93,83,61,30.03,29.91,6,2,16,0.04
2013-7-24,80,68,63,68,63,59,96,86,60,29.96,29.88,5,2,11,0.04
2013-7-25,75,65,60,68,61,56,97,87,75,30.13,29.96,6,1,9,1.35
2013-7-26,73,65,59,68,62,57,97,92,78,30.20,30.13,2,0,8,0.70
2013-7-27,71,65,62,65,63,61,98,93,77,30.14,30.01,8,2,12,0.15
2013-7-28,77,66,61,65,60,54,97,80,47,30.14,30.02,9,2,19,0.01
2013-7-29,79,66,61,59,54,41,86,69,37,30.28,30.12,4,1,11,0.00
2013-7-30,79,68,62,68,62,56,93,81,52,30.31,30.24,5,1,9,0.00
2013-7-31,69,65,63,66,64,62,98,94,87,30.26,30.06,5,1,9,0.04
2013-8-1,80,68,63,66,63,60,98,85,56,30.10,30.01,6,1,12,0.01
2013-8-2,76,67,60,67,62,58,93,85,71,30.14,30.03,6,1,8,0.00
2013-8-3,79,69,65,65,60,55,94,72,51,30.14,30.07,6,2,10,0.00
2013-8-4,81,69,63,66,61,56,93,78,55,30.14,30.07,6,2,14,0.00
2013-8-5,76,66,61,67,61,54,92,82,71,30.15,30.08,5,1,11,0.00
2013-8-6,76,68,63,69,64,62,98,90,73,30.13,30.06,5,1,9,0.39
2013-8-7,66,65,63,65,64,62,99,98,97,30.17,30.10,5,1,9,0.80
2013-8-8,71,66,64,69,65,63,99,98,94,30.19,30.13,6,2,8,0.15
2013-8-9,73,68,65,70,67,64,98,95,85,30.21,30.14,8,3,10,0.22
2013-8-10,78,69,66,72,67,65,98,92,72,30.23,30.16,6,2,11,0.57
2013-8-11,78,69,66,70,65,62,96,88,71,30.25,30.16,4,1,11,0.51
2013-8-12,67,67,67,66,66,65,95,95,94,30.21,30.21,2,1,3,0.51
2013-8-16,69,58,54,58,49,-100,92,81,64,30.28,30.21,2,0,7,0.00
2013-8-17,65,58,54,59,55,51,98,91,80,30.28,30.22,1,0,5,0.20
2013-8-18,69,60,57,65,58,-100,98,95,85,30.35,30.24,5,1,10,0.30
2013-8-19,66,59,59,65,50,-100,98,97,95,30.32,30.21,4,0,5,1.71
2013-8-20,73,63,59,68,61,-100,99,96,82,30.32,30.23,2,0,5,0.03
2013-8-21,69,63,61,65,62,60,98,96,87,30.36,30.27,4,1,6,0.40
2013-8-22,75,67,63,68,64,61,97,91,76,30.30,30.16,3,1,8,0.20
2013-8-23,80,68,60,69,63,59,97,86,55,30.19,30.09,5,1,10,0.32
2013-8-24,74,64,57,65,60,55,97,87,69,30.40,30.17,2,0,8,0.32
2013-8-25,73,60,54,62,54,-100,93,83,69,30.50,30.40,3,0,7,0.00
2013-8-26,72,62,55,65,58,53,95,86,67,30.47,30.27,4,0,6,0.00
2013-8-27,76,64,59,66,58,54,89,81,60,30.29,30.17,2,0,6,0.00
2013-8-28,77,73,67,69,66,62,87,80,71,30.15,30.08,7,3,9,0.00
2013-8-29,81,72,66,69,65,62,90,81,61,30.09,30.02,6,3,14,0.00
2013-8-30,72,68,65,68,66,63,97,92,84,30.12,30.03,3,0,6,0.00
2013-8-31,78,68,63,69,65,62,98,92,71,30.08,29.99,5,1,9,0.08
2013-9-1,78,68,65,69,63,-100,96,86,70,30.03,29.92,8,2,15,0.08
2013-9-2,78,69,64,68,63,60,93,83,64,30.03,29.93,4,1,9,0.00
2013-9-3,77,67,58,65,62,56,96,82,61,30.09,29.95,9,2,16,0.56
2013-9-4,77,67,63,68,62,58,95,84,70,30.22,30.09,5,1,7,0.01
2013-9-5,77,68,62,67,62,59,96,84,65,30.24,30.18,4,1,6,0.00
2013-9-6,72,66,61,64,58,48,91,78,57,30.27,30.17,3,1,6,0.00
2013-9-7,74,64,57,65,60,55,95,87,72,30.24,30.12,6,1,9,0.00
2013-9-8,78,67,62,65,59,-100,92,80,58,30.14,30.06,4,1,7,0.00
2013-9-9,80,69,63,67,63,59,94,82,61,30.24,30.12,2,0,7,0.00
2013-9-10,81,68,62,68,63,60,93,85,59,30.35,30.24,3,0,8,0.00
2013-9-11,74,67,63,67,63,60,94,88,76,30.34,30.22,5,1,8,0.02
2013-9-12,75,67,63,65,62,57,92,85,71,30.23,29.99,7,2,16,0.02
2013-9-13,73,63,53,60,55,49,92,77,53,30.00,29.92,7,3,13,0.00
2013-9-14,70,57,50,56,50,46,89,78,61,30.25,30.00,4,1,8,0.00
2013-9-15,69,57,52,60,53,-100,95,88,69,30.32,30.25,5,1,9,0.00
2013-9-16,78,66,59,62,59,52,95,79,45,30.30,30.19,5,1,8,0.00
2013-9-17,63,59,55,58,54,52,93,86,74,30.36,30.24,2,0,6,0.00
2013-9-18,57,54,52,52,51,49,91,90,87,30.37,30.32,0,0,4,0.00
2013-9-19,71,60,54,65,58,53,98,92,70,30.32,30.22,4,1,7,0.00
2013-9-20,73,64,59,65,60,57,94,87,69,30.23,30.04,4,1,7,0.00
2013-9-21,63,60,55,60,58,54,98,96,88,30.05,29.78,11,4,25,1.24
2013-9-22,70,57,50,62,52,-100,98,88,59,30.03,29.86,6,2,9,0.01
2013-9-23,67,57,52,60,54,50,95,88,75,30.18,30.03,4,0,8,0.01
2013-9-24,64,57,52,60,55,51,98,93,86,30.18,30.07,3,0,5,0.01
2013-9-25,58,56,53,57,55,52,98,98,98,30.07,29.96,1,0,3,1.12
2013-9-26,67,57,52,64,56,51,99,97,85,30.17,30.01,2,0,6,0.02
2013-9-27,69,57,50,60,53,46,96,87,70,30.29,30.17,3,0,6,0.00
2013-9-28,64,55,50,57,52,49,96,91,73,30.36,30.27,2,0,5,0.00
2013-9-29,62,52,47,56,49,-100,97,90,78,30.30,30.18,4,0,6,0.00
2013-9-30,63,55,50,57,52,48,97,92,80,30.24,30.16,3,0,7,0.00
2013-10-1,59,58,54,56,55,53,95,89,87,30.26,30.23,0,0,1,0.00
2013-10-2,73,61,55,62,56,52,93,84,62,30.29,30.21,3,1,7,0.00
2013-10-3,72,63,58,64,57,54,90,83,69,30.26,30.19,5,1,8,0.00
2013-10-4,73,63,58,63,58,55,92,84,68,30.29,30.22,4,1,6,0.00
2013-10-5,77,66,61,65,59,56,88,80,58,30.26,30.15,3,1,6,0.00
2013-10-6,70,63,60,63,59,57,97,87,76,30.17,29.99,6,1,11,0.25
2013-10-7,71,60,50,63,57,45,98,92,64,30.09,29.91,10,2,18,1.00
2013-10-8,65,55,48,53,47,42,91,76,62,30.30,30.08,3,1,6,0.04
2013-10-9,67,54,47,56,47,40,89,78,62,30.34,30.25,4,1,6,0.00
2013-10-10,68,56,49,55,50,46,97,80,57,30.27,30.15,5,2,14,0.00
2013-10-11,71,58,50,52,49,46,90,73,43,30.17,30.09,4,2,9,0.00
2013-10-12,69,59,53,58,53,50,89,80,63,30.23,30.11,4,1,7,0.00
2013-10-13,66,59,56,59,53,-100,95,85,73,30.31,30.22,3,1,7,0.00
2013-10-14,64,57,54,58,54,51,97,91,79,30.33,30.25,2,0,4,0.01
2013-10-15,65,56,51,57,53,50,97,91,72,30.30,30.17,4,0,8,0.00
2013-10-16,62,54,50,56,51,47,97,90,82,30.21,30.10,5,1,6,0.00
2013-10-17,61,56,53,60,55,52,98,97,88,30.12,29.99,8,3,13,0.14
2013-10-18,62,53,46,54,49,43,96,88,65,30.14,30.02,5,2,12,0.01
2013-10-19,57,51,46,47,41,31,87,70,45,30.10,30.01,5,2,14,0.01
2013-10-20,61,47,37,47,36,-100,95,69,39,30.24,30.07,6,2,10,0.00
2013-10-21,60,49,44,50,45,41,97,86,66,30.28,30.16,7,2,10,0.00
2013-10-22,63,53,48,48,44,41,89,73,54,30.18,29.94,6,2,15,0.00
2013-10-23,48,42,31,42,33,25,85,72,51,30.17,29.86,9,4,23,0.00
2013-10-24,49,38,30,36,30,24,82,71,56,30.35,30.17,7,3,14,0.00
2013-10-25,49,38,26,30,23,16,82,59,29,30.53,30.35,11,2,19,0.00
2013-10-26,52,38,28,39,28,22,80,68,43,30.52,30.30,7,2,19,0.00
2013-10-27,55,48,42,48,42,-100,90,81,73,30.31,30.24,8,3,20,0.00
2013-10-28,57,50,47,50,45,-100,94,86,73,30.41,30.26,7,1,10,0.09
2013-10-29,63,52,45,50,46,44,97,83,55,30.49,30.38,5,2,10,0.02
2013-10-30,70,58,52,57,52,49,93,83,56,30.43,30.30,8,2,14,0.01
2013-10-31,57,55,53,56,52,48,98,91,81,30.30,30.02,11,4,29,0.04
2013-11-1,69,57,50,56,47,29,98,75,27,30.01,29.80,16,6,34,0.28
2013-11-2,53,46,39,43,37,33,83,71,52,30.16,29.86,15,4,27,0.11
2013-11-3,55,42,35,37,31,-100,86,70,44,30.50,30.15,7,2,14,0.00
2013-11-4,49,39,34,33,30,28,83,72,50,30.66,30.50,4,1,9,0.00
2013-11-5,59,44,34,38,29,22,81,59,29,30.69,30.58,4,1,8,0.00
2013-11-6,58,50,45,53,48,41,98,94,84,30.59,30.29,2,0,9,0.23
2013-11-7,57,49,36,52,41,20,98,79,38,30.30,30.14,11,5,24,0.02
2013-11-8,52,39,31,26,20,9,65,50,19,30.48,30.24,13,3,21,0.01
2013-11-9,50,40,34,30,23,-100,62,51,33,30.53,30.42,6,2,11,0.00
2013-11-10,60,51,44,30,25,11,56,38,23,30.44,30.35,11,6,17,0.00
2013-11-11,56,47,40,33,28,18,59,49,36,30.45,30.32,6,3,10,0.00
2013-11-12,48,38,19,34,22,7,78,54,35,30.52,30.24,14,7,26,0.00
2013-11-13,46,31,16,12,7,-1,69,41,19,30.74,30.52,7,2,9,0.00
2013-11-14,54,42,31,19,12,4,39,30,20,30.70,30.50,5,2,11,0.00
2013-11-15,47,44,37,46,38,3,98,86,21,30.51,30.35,7,3,14,0.30
2013-11-16,53,48,46,52,46,-100,99,97,97,30.41,30.33,6,2,11,0.11
2013-11-17,57,52,50,57,52,50,99,99,99,30.37,30.06,10,3,20,0.50
2013-11-18,58,51,39,57,40,26,99,69,36,30.11,29.99,13,7,26,0.11
2013-11-19,52,39,33,30,24,18,68,55,40,30.37,30.09,13,4,21,0.02
2013-11-20,46,35,27,28,25,21,85,67,44,30.60,30.37,6,2,11,0.00
2013-11-21,49,44,36,48,42,28,98,94,72,30.63,30.53,3,0,8,0.45
2013-11-22,58,52,48,58,52,47,99,98,97,30.54,30.27,8,3,15,0.07
2013-11-23,52,44,28,52,37,-100,99,80,34,30.29,30.19,16,5,32,0.01
2013-11-24,39,27,19,20,7,-4,76,46,16,30.67,30.28,12,4,26,0.00
2013-11-25,35,26,18,30,12,-4,95,58,18,30.69,30.51,7,1,9,0.02
2013-11-26,45,40,31,44,40,30,98,98,96,30.51,29.78,8,2,14,4.05
2013-11-27,43,27,17,42,24,12,98,89,76,30.33,29.71,14,8,32,0.13
2013-11-28,47,31,16,25,15,5,83,54,25,30.66,30.33,7,3,9,0.01
2013-11-29,53,41,32,29,19,-3,62,41,18,30.68,30.60,5,2,10,0.00
2013-11-30,46,34,27,33,20,-100,75,58,35,30.71,30.53,7,1,11,0.00
2013-12-1,51,43,38,39,34,26,84,71,57,30.53,30.15,16,4,23,0.00
2013-12-2,48,42,38,42,37,29,95,82,66,30.15,29.96,6,2,11,0.00
2013-12-3,47,44,42,46,43,41,98,98,95,30.10,30.00,6,2,12,0.04
2013-12-4,54,51,46,54,50,45,99,98,98,30.21,30.09,11,4,19,0.03
2013-12-5,60,56,54,60,56,54,99,99,99,30.23,30.11,14,4,26,0.94
2013-12-6,59,58,54,59,58,54,99,99,99,30.15,30.05,17,10,34,0.89
2013-12-7,56,49,40,56,46,-100,99,93,82,30.40,30.10,15,2,24,0.02
2013-12-8,47,39,34,47,38,34,99,98,98,30.44,30.35,5,1,17,0.48
2013-12-9,53,48,43,53,47,37,99,94,60,30.37,30.14,13,6,22,1.11
2013-12-10,49,41,29,48,34,10,98,77,43,30.38,30.02,21,8,42,0.10
2013-12-11,46,34,29,19,7,-2,45,31,22,30.59,30.42,7,3,16,0.01
2013-12-12,42,31,24,18,8,0,68,42,20,30.57,30.44,10,4,19,0.00
2013-12-13,45,35,27,19,13,4,56,41,25,30.56,30.42,6,2,10,0.00
2013-12-14,46,39,34,45,35,-100,98,88,54,30.44,29.96,10,3,17,1.07
2013-12-15,43,34,29,42,30,23,98,85,66,30.28,29.91,14,8,29,0.01
2013-12-16,47,38,30,26,24,21,78,59,37,30.40,30.27,12,6,26,0.00
2013-12-17,52,42,32,31,27,19,66,55,36,30.34,30.13,18,9,39,0.00
2013-12-18,48,35,25,21,6,-6,65,35,13,30.51,30.19,11,4,29,0.00
2013-12-19,57,47,41,24,20,10,43,35,27,30.51,30.37,10,4,19,0.00
2013-12-20,54,46,41,48,33,19,96,62,31,30.39,30.29,10,4,18,0.00
2013-12-21,58,53,49,58,51,-100,99,97,96,30.32,30.11,16,7,44,0.37
2013-12-22,59,54,51,59,54,51,99,99,98,30.17,30.06,19,7,44,3.00
2013-12-23,51,45,32,51,43,30,99,93,78,30.29,30.12,11,3,20,1.17
2013-12-24,32,27,21,31,19,11,96,72,49,30.58,30.29,10,5,20,0.01
2013-12-25,36,26,20,22,16,8,83,65,50,30.68,30.57,6,2,10,0.00
2013-12-26,46,36,26,24,17,13,85,47,30,30.57,30.47,10,3,18,0.00
2013-12-27,49,37,28,26,22,15,70,55,39,30.62,30.51,6,1,9,0.00
2013-12-28,45,40,34,36,24,-100,96,57,30,30.59,30.21,9,1,15,0.39
2013-12-29,49,42,36,44,38,27,98,87,68,30.19,29.97,15,5,27,1.61
2013-12-30,42,38,34,34,32,27,88,79,63,30.29,30.12,11,4,25,0.01
2013-12-31,39,32,29,28,18,11,77,56,35,30.55,30.27,8,4,19,0.00
2014-1-1,39,34,30,27,22,16,76,64,49,30.55,30.33,5,1,9,0.00
2014-1-2,42,34,13,41,32,10,97,91,73,30.32,29.84,17,8,38,0.05